Location: Houston
(29.7630°N, 95.3630°W)
Time: 07:15:00
(UTC-05:00)

Saudisat 1A - Visible Passes

Search period start: 21 August 2017 00:00
Search period end: 31 August 2017 00:00
Orbit: 580 x 612 km, 64.6° (Epoch: 20 August)

Date Brightness Start Highest point End Pass type
(mag) Time Alt. Az. Time Alt. Az. Time Alt. Az.
21 Aug 9.9 22:10:05 10° N 22:12:04 22° NNE 22:12:04 22° NNE visible
22 Aug 9.7 22:19:40 10° NNW 22:21:53 29° NNW 22:21:53 29° NNW visible
23 Aug 10.2 20:52:50 10° NNE 20:54:08 11° NE 20:55:06 10° ENE visible
23 Aug 9.9 22:29:36 10° NW 22:31:46 28° NW 22:31:46 28° NW visible
24 Aug 9.5 21:01:02 10° N 21:04:18 20° NE 21:05:04 19° ENE visible
24 Aug 10.4 22:39:56 10° NW 22:41:43 20° WNW 22:41:43 20° WNW visible
25 Aug 8.6 21:10:18 10° N 21:14:22 38° ENE 21:15:06 35° E visible
25 Aug 10.9 22:51:06 10° WNW 22:51:47 12° W 22:51:47 12° W visible
26 Aug 7.8 21:19:58 10° NNW 21:24:19 78° ENE 21:25:14 54° SE visible
27 Aug 8.6 21:29:57 10° NW 21:34:10 50° WSW 21:35:29 36° SSW visible
28 Aug 9.9 21:40:25 10° NW 21:43:56 24° WSW 21:45:51 18° SSW visible
29 Aug 8.4 20:10:31 10° NNW 20:14:41 43° ENE 20:18:47 10° SE visible
29 Aug 10.8 21:51:57 10° W 21:53:38 12° WSW 21:55:20 10° SW visible
30 Aug 8.0 20:20:15 10° NNW 20:24:36 89° NNE 20:28:55 10° SSE visible
